W3EJE-13 Weather Reports


Display with metric or nautical units.
time (UTC)temp
F
wind
direction
speed
MPH
gust
MPH
rain 1hr
in
rain 24hr
in
rain mn
in
humidity
%
barometer
mb
20260509103205 50 250 0.0 1.0 0.00 0.00 0.00 93 1012.9
20260509102704 50 245 0.0 0.0 0.00 0.00 0.00 93 1012.9
20260509102200 50 248 0.0 0.0 0.00 0.00 0.00 92 1012.9
20260509101656 50 248 1.0 2.0 0.00 0.00 0.00 91 1012.7
20260509101153 50 257 1.0 1.0 0.00 0.00 0.00 91 1013.0
20260509100650 50 253 2.0 2.0 0.00 0.00 0.00 91 1012.9
20260509100147 50 296 2.0 2.0 0.00 0.00 0.00 90 1013.0
20260509095644 50 260 4.0 5.0 0.00 0.00 0.00 90 1013.0
20260509095141 51 249 3.0 5.0 0.00 0.00 0.00 89 1012.9
20260509094637 51 285 4.0 6.0 0.00 0.00 0.00 89 1013.0
20260509094135 51 321 8.0 9.0 0.00 0.00 0.00 87 1013.1
20260509093633 52 284 5.0 6.0 0.00 0.00 0.00 86 1013.1
20260509093130 52 326 6.0 7.0 0.00 0.00 0.00 85 1012.7
20260509092628 52 269 3.0 3.0 0.00 0.00 0.00 83 1012.9
20260509092126 50 246 2.0 2.0 0.00 0.00 0.00 85 1013.0
20260509091624 50 239 0.0 0.0 0.00 0.00 0.00 87 1012.7
20260509091120 49 283 0.0 0.0 0.00 0.00 0.00 88 1012.6
20260509090618 48 259 0.0 0.0 0.00 0.00 0.00 91 1012.5
20260509090115 48 251 0.0 1.0 0.00 0.00 0.00 93 1012.5
20260509085612 47 255 0.0 0.0 0.00 0.00 0.00 95 1012.4
20260509085108 47 252 0.0 0.0 0.00 0.00 0.00 96 1012.4
20260509084605 47 248 0.0 0.0 0.00 0.00 0.00 97 1012.3
20260509084102 47 253 0.0 0.0 0.00 0.00 0.00 97 1012.3
20260509083600 47 223 0.0 0.0 0.00 0.00 0.00 97 1012.1
20260509083056 46 223 0.0 0.0 0.00 0.00 0.00 98 1012.4
20260509082554 46 223 0.0 0.0 0.00 0.00 0.00 98 1012.5
20260509082050 46 223 0.0 0.0 0.00 0.00 0.00 98 1012.1
20260509081547 46 223 0.0 0.0 0.00 0.00 0.00 98 1012.3
20260509081044 46 223 0.0 0.0 0.00 0.00 0.00 98 1012.0
20260509080542 46 223 0.0 0.0 0.00 0.00 0.00 98 1011.9
20260509080040 46 223 0.0 0.0 0.00 0.00 0.00 98 1012.0
20260509075537 46 223 0.0 0.0 0.00 0.00 0.00 98 1012.0
20260509075035 46 223 0.0 0.0 0.00 0.00 0.00 98 1012.1
20260509074532 46 222 0.0 0.0 0.00 0.00 0.00 98 1012.0
20260509074028 46 222 0.0 0.0 0.00 0.00 0.00 98 1012.3
20260509073525 46 221 0.0 0.0 0.00 0.00 0.00 98 1012.0
20260509073021 46 243 0.0 0.0 0.00 0.00 0.00 98 1012.1
20260509072518 46 245 0.0 0.0 0.00 0.00 0.00 98 1012.0
20260509072015 46 221 0.0 0.0 0.00 0.00 0.00 97 1011.9
20260509071512 46 221 0.0 0.0 0.00 0.00 0.00 97 1012.0
20260509071009 46 221 0.0 0.0 0.00 0.00 0.00 97 1012.0
20260509070506 46 221 0.0 0.0 0.00 0.00 0.00 97 1012.0
20260509070002 46 221 0.0 0.0 0.00 0.00 0.00 96 1011.7
20260509065458 46 221 0.0 0.0 0.00 0.00 0.00 95 1012.0
20260509064954 46 221 0.0 0.0 0.00 0.00 0.00 95 1012.0
20260509064452 46 221 0.0 0.0 0.00 0.00 0.00 95 1011.9
20260509063950 46 221 0.0 0.0 0.00 0.00 0.00 94 1011.9
20260509063445 47 221 0.0 0.0 0.00 0.00 0.00 94 1011.9
20260509062942 47 221 0.0 0.0 0.00 0.00 0.00 94 1012.0
20260509062439 47 221 0.0 0.0 0.00 0.00 0.00 93 1012.3
20260509061937 47 221 0.0 0.0 0.00 0.00 0.00 92 1012.3
20260509061434 48 221 0.0 0.0 0.00 0.00 0.00 92 1012.3
20260509060931 48 221 0.0 1.0 0.00 0.00 0.00 92 1012.5
20260509060429 48 223 0.0 0.0 0.00 0.00 0.00 92 1012.5
20260509055924 48 223 0.0 0.0 0.00 0.00 0.00 92 1012.6
20260509055419 48 223 0.0 0.0 0.00 0.00 0.00 91 1012.7
20260509054916 48 223 0.0 0.0 0.00 0.00 0.00 91 1012.9
20260509054413 48 224 0.0 0.0 0.00 0.00 0.00 91 1012.9
20260509053911 49 224 0.0 0.0 0.00 0.00 0.00 91 1013.0
20260509053409 49 224 0.0 0.0 0.00 0.00 0.00 92 1012.9
20260509052906 49 224 0.0 0.0 0.00 0.00 0.00 92 1013.3
20260509052403 49 224 0.0 0.0 0.00 0.00 0.00 92 1013.2
20260509051901 49 224 0.0 0.0 0.00 0.00 0.00 91 1012.9
20260509051359 50 224 0.0 0.0 0.00 0.00 0.00 91 1013.1
20260509050856 50 224 0.0 0.0 0.00 0.00 0.00 91 1013.1
20260509050352 50 224 0.0 0.0 0.00 0.00 0.00 90 1013.2
20260509045849 50 224 0.0 0.0 0.00 0.00 0.00 89 1013.0
20260509045346 50 224 0.0 0.0 0.00 0.00 0.00 89 1013.3
20260509044843 50 224 0.0 0.0 0.00 0.00 0.00 88 1013.1
20260509044341 50 224 0.0 0.0 0.00 0.00 0.00 88 1013.3
20260509043837 50 224 0.0 0.0 0.00 0.00 0.00 88 1013.3
20260509043333 50 224 0.0 0.0 0.00 0.00 0.00 88 1013.1
20260509042829 50 224 0.0 0.0 0.00 0.00 0.00 88 1013.3
20260509042326 50 224 0.0 0.0 0.00 0.00 0.00 88 1013.1
20260509041823 50 224 0.0 0.0 0.00 0.00 0.00 88 1013.4
20260509041320 50 224 0.0 0.0 0.00 0.00 0.00 88 1013.4
20260509040818 50 226 0.0 0.0 0.00 0.00 0.00 88 1013.3
20260509040315 50 226 0.0 0.0 0.00 0.00 0.00 88 1013.4
20260509035812 50 226 0.0 0.0 0.00 0.00 0.00 88 1013.4
20260509035309 50 226 0.0 0.0 0.00 0.00 0.00 88 1013.4
20260509034805 50 225 0.0 0.0 0.00 0.00 0.00 87 1013.1
20260509034303 50 225 0.0 0.0 0.00 0.00 0.00 87 1013.3
20260509033800 51 225 0.0 0.0 0.00 0.00 0.00 86 1013.4
20260509033257 51 225 0.0 0.0 0.00 0.00 0.00 85 1013.1
20260509032754 51 225 0.0 0.0 0.00 0.00 0.00 85 1013.3
20260509032251 51 225 0.0 0.0 0.00 0.00 0.00 85 1013.3
20260509031748 51 226 0.0 0.0 0.00 0.00 0.00 85 1013.3
20260509031246 51 227 0.0 0.0 0.00 0.00 0.00 85 1013.3
20260509030744 51 227 0.0 0.0 0.00 0.00 0.00 85 1013.5
20260509030241 51 227 0.0 0.0 0.00 0.00 0.00 85 1013.6
20260509025738 51 227 0.0 0.0 0.00 0.00 0.00 84 1013.4
20260509025233 51 227 0.0 0.0 0.00 0.00 0.00 84 1013.3
20260509024728 51 227 0.0 0.0 0.00 0.00 0.00 84 1013.3
20260509024224 51 227 0.0 0.0 0.00 0.00 0.00 84 1013.4
20260509023722 51 227 0.0 0.0 0.00 0.00 0.00 83 1013.7
20260509023219 52 227 0.0 0.0 0.00 0.00 0.00 82 1013.5
20260509022715 52 227 0.0 0.0 0.00 0.00 0.00 81 1013.5
20260509022213 52 227 0.0 0.0 0.00 0.00 0.00 80 1013.5
20260509021710 52 227 0.0 0.0 0.00 0.00 0.00 80 1013.7
20260509021208 52 227 0.0 0.0 0.00 0.00 0.00 80 1013.6
20260509020705 52 227 0.0 0.0 0.00 0.00 0.00 77 1013.5
20260509020202 52 227 0.0 0.0 0.00 0.00 0.00 77 1013.4
20260509015700 52 227 0.0 0.0 0.00 0.00 0.00 78 1013.5
20260509015158 53 228 0.0 0.0 0.00 0.00 0.00 78 1013.4
20260509014654 53 228 0.0 0.0 0.00 0.00 0.00 78 1013.5
20260509014151 53 231 0.0 0.0 0.00 0.00 0.00 77 1013.5
20260509013648 53 230 0.0 0.0 0.00 0.00 0.00 77 1013.5
20260509013144 53 225 0.0 0.0 0.00 0.00 0.00 77 1013.5
20260509012640 53 223 0.0 0.0 0.00 0.00 0.00 76 1013.4
20260509012137 53 228 0.0 0.0 0.00 0.00 0.00 76 1013.2
20260509011635 53 245 0.0 0.0 0.00 0.00 0.00 76 1013.6
20260509011132 54 246 0.0 0.0 0.00 0.00 0.00 75 1013.4
20260509010630 54 224 0.0 0.0 0.00 0.00 0.00 72 1013.5
20260509010126 54 210 0.0 1.0 0.00 0.00 0.00 72 1013.4
20260509005624 54 214 1.0 1.0 0.00 0.00 0.00 72 1013.2
20260509005120 55 223 0.0 0.0 0.00 0.00 0.00 70 1013.4
20260509004616 55 223 0.0 0.0 0.00 0.00 0.00 69 1013.3
20260509004113 56 223 0.0 1.0 0.00 0.00 0.00 67 1013.1
20260509003612 56 224 0.0 0.0 0.00 0.00 0.00 65 1013.1
20260509003109 56 223 0.0 0.0 0.00 0.00 0.00 64 1013.1
20260509002606 56 218 0.0 0.0 0.00 0.00 0.00 65 1013.0
20260509002103 56 249 0.0 0.0 0.00 0.00 0.00 65 1013.2
20260509001601 56 249 0.0 0.0 0.00 0.00 0.00 66 1013.0
20260509001056 57 249 0.0 0.0 0.00 0.00 0.00 65 1013.4
20260509000555 57 246 0.0 0.0 0.00 0.00 0.00 64 1013.1
20260509000050 57 246 0.0 0.0 0.00 0.00 0.00 63 1013.1
20260508235548 57 275 0.0 0.0 0.00 0.00 0.00 64 1013.0
20260508235044 59 262 1.0 1.0 0.00 0.00 0.00 61 1012.9
20260508234542 59 267 1.0 1.0 0.00 0.00 0.00 60 1012.8
20260508234039 60 279 3.0 3.0 0.00 0.00 0.00 60 1013.0
20260508233538 61 250 0.0 0.0 0.00 0.00 0.00 58 1012.9
20260508233035 60 259 0.0 1.0 0.00 0.00 0.00 59 1012.9
20260508232532 59 268 2.0 2.0 0.00 0.00 0.00 61 1012.8
20260508232029 59 261 1.0 2.0 0.00 0.00 0.00 58 1012.6
20260508231527 59 244 2.0 3.0 0.00 0.00 0.00 59 1012.7
20260508231023 59 286 4.0 5.0 0.00 0.00 0.00 61 1012.6
20260508230520 59 291 6.0 7.0 0.00 0.00 0.00 59 1012.7
20260508230017 59 272 4.0 6.0 0.00 0.00 0.00 60 1012.9
20260508225514 59 271 2.0 2.0 0.00 0.00 0.00 59 1012.8
20260508225010 60 259 2.0 2.0 0.00 0.00 0.00 59 1012.8
20260508224509 61 235 6.0 11.0 0.00 0.00 0.00 57 1012.5
20260508224005 62 263 5.0 6.0 0.00 0.00 0.00 57 1012.6
20260508223504 62 262 1.0 1.0 0.00 0.00 0.00 59 1012.8
20260508223001 62 260 2.0 2.0 0.00 0.00 0.00 60 1012.7
20260508222458 60 274 2.0 2.0 0.00 0.00 0.00 60 1012.7
20260508221954 62 261 0.0 1.0 0.00 0.00 0.00 57 1012.6
20260508221450 62 254 2.0 2.0 0.00 0.00 0.00 59 1012.8
20260508220946 60 236 0.0 0.0 0.00 0.00 0.00 61 1013.0
20260508220443 60 259 2.0 2.0 0.00 0.00 0.00 63 1013.4
20260508215939 58 254 0.0 0.0 0.00 0.00 0.00 61 1013.2
20260508215437 58 256 1.0 2.0 0.00 0.00 0.00 64 1013.3
20260508214933 57 251 1.0 1.0 0.00 0.00 0.00 66 1013.2
20260508214431 57 252 2.0 2.0 0.00 0.00 0.00 64 1013.2
20260508213926 57 277 3.0 3.0 0.00 0.00 0.00 67 1013.3
20260508213424 57 250 2.0 2.0 0.00 0.00 0.00 65 1013.6
20260508212919 57 246 0.0 0.0 0.00 0.00 0.00 66 1013.2
20260508212417 56 249 1.0 2.0 0.00 0.00 0.00 65 1013.7
20260508211913 56 266 2.0 2.0 0.00 0.00 0.00 67 1013.9
20260508211408 56 268 1.0 2.0 0.00 0.00 0.00 66 1013.7
20260508210906 56 258 3.0 3.0 0.00 0.00 0.00 68 1013.6
20260508210402 56 258 2.0 2.0 0.00 0.00 0.00 66 1013.7
20260508205858 56 244 2.0 2.0 0.00 0.00 0.00 66 1013.6
20260508205355 56 252 1.0 1.0 0.00 0.00 0.00 67 1013.7
20260508204851 56 255 3.0 3.0 0.00 0.00 0.00 64 1013.8
20260508204349 56 294 3.0 3.0 0.00 0.00 0.00 65 1014.1
20260508203844 56 296 3.0 3.0 0.00 0.00 0.00 66 1014.1
20260508203341 56 285 3.0 3.0 0.00 0.00 0.00 64 1013.7
20260508202836 56 312 4.0 5.0 0.00 0.00 0.00 65 1014.1
20260508202334 56 273 3.0 5.0 0.00 0.00 0.00 64 1014.2
20260508201831 56 316 5.0 6.0 0.00 0.00 0.00 64 1014.1
20260508201328 56 262 2.0 2.0 0.00 0.00 0.00 65 1014.3
20260508200824 56 283 5.0 6.0 0.00 0.00 0.00 63 1014.1
20260508200321 56 282 3.0 3.0 0.00 0.00 0.00 64 1014.3
20260508195817 56 262 2.0 2.0 0.00 0.00 0.00 64 1014.4
20260508195314 56 321 6.0 7.0 0.00 0.00 0.00 65 1014.5
20260508194810 56 348 7.0 8.0 0.00 0.00 0.00 63 1014.4
20260508194308 56 288 3.0 6.0 0.00 0.00 0.00 63 1014.4
20260508193805 56 294 5.0 6.0 0.00 0.00 0.00 64 1014.5
20260508193301 56 276 4.0 5.0 0.00 0.00 0.00 65 1014.6
20260508192757 56 316 2.0 3.0 0.00 0.00 0.00 65 1014.4
20260508192254 56 267 4.0 5.0 0.00 0.00 0.00 64 1014.4
20260508191752 56 329 3.0 3.0 0.00 0.00 0.00 64 1014.8
20260508191249 57 335 7.0 9.0 0.00 0.00 0.00 62 1014.6
20260508190746 57 271 1.0 1.0 0.00 0.00 0.00 62 1014.7
20260508190242 57 267 4.0 5.0 0.00 0.00 0.00 61 1014.4
20260508185738 57 308 7.0 9.0 0.00 0.00 0.00 62 1014.6
20260508185236 57 4 8.0 11.0 0.00 0.00 0.00 61 1014.6
20260508184733 57 355 8.0 14.0 0.00 0.00 0.00 59 1014.9
20260508184230 57 266 3.0 3.0 0.00 0.00 0.00 59 1014.6
20260508183727 58 28 7.0 11.0 0.00 0.00 0.00 62 1014.6
20260508183223 58 300 3.0 3.0 0.00 0.00 0.00 59 1014.6
20260508182719 58 212 5.0 7.0 0.00 0.00 0.00 58 1014.4
20260508182216 59 331 6.0 10.0 0.00 0.00 0.00 59 1014.4
20260508181712 59 266 7.0 8.0 0.00 0.00 0.00 58 1014.6
20260508181209 59 298 10.0 11.0 0.00 0.00 0.00 59 1014.5
20260508180706 58 282 5.0 7.0 0.00 0.00 0.00 59 1014.6
20260508180203 58 248 5.0 7.0 0.00 0.00 0.00 58 1014.5
20260508175659 58 328 9.0 13.0 0.00 0.00 0.00 61 1014.8
20260508175156 58 341 9.0 10.0 0.00 0.00 0.00 60 1014.8
20260508174654 59 247 3.0 5.0 0.00 0.00 0.00 55 1014.8
20260508174150 58 295 5.0 7.0 0.00 0.00 0.00 57 1014.8
20260508173647 58 260 2.0 5.0 0.00 0.00 0.00 60 1014.7
20260508173143 57 346 10.0 13.0 0.00 0.00 0.00 59 1014.7
20260508172640 58 269 5.0 7.0 0.00 0.00 0.00 57 1014.7
20260508172137 58 325 8.0 9.0 0.00 0.00 0.00 55 1014.9
20260508171633 57 320 8.0 10.0 0.00 0.00 0.00 58 1015.1
20260508171130 58 314 8.0 9.0 0.00 0.00 0.00 57 1015.0
20260508170627 56 302 8.0 10.0 0.00 0.00 0.00 56 1015.3
20260508170125 57 345 7.0 10.0 0.00 0.00 0.00 55 1015.3
20260508165622 57 330 7.0 9.0 0.00 0.00 0.00 57 1015.2
20260508165119 57 256 7.0 9.0 0.00 0.00 0.00 54 1015.3
20260508164615 58 284 10.0 13.0 0.00 0.00 0.00 55 1015.1
20260508164112 58 314 7.0 8.0 0.00 0.00 0.00 58 1015.1
20260508163609 57 302 10.0 13.0 0.00 0.00 0.00 56 1015.2
20260508163106 57 317 6.0 7.0 0.00 0.00 0.00 58 1015.2
20260508162603 56 265 7.0 9.0 0.00 0.00 0.00 56 1015.4
20260508162100 57 329 7.0 8.0 0.00 0.00 0.00 56 1015.2
20260508161557 56 329 9.0 13.0 0.00 0.00 0.00 58 1015.4
20260508161054 56 331 11.0 16.0 0.00 0.00 0.00 57 1015.5
20260508160552 55 345 12.0 14.0 0.00 0.00 0.00 55 1015.5
20260508160049 55 348 5.0 7.0 0.00 0.00 0.00 60 1015.4
20260508155546 56 227 3.0 3.0 0.00 0.00 0.00 60 1015.3
20260508155043 56 233 4.0 5.0 0.00 0.00 0.00 60 1015.4
20260508154540 55 344 4.0 8.0 0.00 0.00 0.00 60 1015.2
20260508154037 55 286 6.0 7.0 0.00 0.00 0.00 62 1015.5
20260508153534 54 211 5.0 7.0 0.00 0.00 0.00 60 1015.5
20260508153030 54 313 4.0 6.0 0.00 0.00 0.00 60 1015.7
20260508152527 54 269 9.0 10.0 0.00 0.00 0.00 60 1015.6
20260508152023 54 18 10.0 10.0 0.00 0.00 0.00 59 1015.6
20260508151520 54 300 9.0 10.0 0.00 0.00 0.00 59 1015.6
20260508151016 54 248 5.0 7.0 0.00 0.00 0.00 59 1015.6
20260508150514 53 17 7.0 9.0 0.00 0.00 0.00 60 1015.7
20260508150009 54 358 8.0 9.0 0.00 0.00 0.00 60 1016.0
20260508145506 54 320 7.0 9.0 0.00 0.00 0.00 59 1015.7
20260508145002 55 239 3.0 3.0 0.00 0.00 0.00 60 1015.7
20260508144500 54 279 3.0 5.0 0.00 0.00 0.00 57 1015.9
20260508143958 54 279 4.0 6.0 0.00 0.00 0.00 57 1015.6
20260508143455 53 336 9.0 10.0 0.00 0.00 0.00 61 1015.6
20260508142951 53 10 6.0 8.0 0.00 0.00 0.00 61 1015.9
20260508142449 52 293 5.0 7.0 0.00 0.00 0.00 59 1015.6
20260508141944 53 298 6.0 8.0 0.00 0.00 0.00 60 1015.6
20260508141442 52 300 9.0 13.0 0.00 0.00 0.00 59 1015.7
20260508140939 52 262 11.0 15.0 0.00 0.00 0.00 59 1016.0
20260508140436 52 312 4.0 5.0 0.00 0.00 0.00 60 1016.2
20260508135931 52 225 3.0 5.0 0.00 0.00 0.00 60 1015.9
20260508135428 52 276 8.0 10.0 0.00 0.00 0.00 61 1016.0
20260508134925 53 358 15.0 17.0 0.00 0.00 0.00 59 1016.0
20260508134421 52 103 11.0 13.0 0.00 0.00 0.00 62 1016.0
20260508133918 51 8 11.0 13.0 0.00 0.00 0.00 61 1015.9
20260508133416 51 290 8.0 10.0 0.00 0.00 0.00 61 1016.0
20260508132913 51 265 7.0 10.0 0.00 0.00 0.00 60 1015.7
20260508132411 51 35 6.0 8.0 0.00 0.00 0.00 63 1015.6
20260508131907 51 242 7.0 9.0 0.00 0.00 0.00 61 1016.0
20260508131402 50 216 4.0 7.0 0.00 0.00 0.00 62 1016.1
20260508130900 50 255 3.0 3.0 0.00 0.00 0.00 64 1015.7
20260508130356 50 260 3.0 5.0 0.00 0.00 0.00 63 1015.7
20260508125852 50 263 4.0 6.0 0.00 0.00 0.00 65 1016.0
20260508125348 50 280 5.0 5.0 0.00 0.00 0.00 65 1015.7
20260508124846 50 236 2.0 3.0 0.00 0.00 0.00 65 1015.9
20260508124343 50 285 4.0 5.0 0.00 0.00 0.00 62 1015.9
20260508123842 49 224 1.0 1.0 0.00 0.00 0.00 67 1015.9
20260508123340 48 259 1.0 1.0 0.00 0.00 0.00 69 1015.9
20260508122836 47 235 0.0 1.0 0.00 0.00 0.00 68 1015.7
20260508122333 47 246 0.0 0.0 0.00 0.00 0.00 70 1015.6
20260508121830 46 253 0.0 1.0 0.00 0.00 0.00 70 1015.7
20260508121328 46 232 1.0 1.0 0.00 0.00 0.00 71 1015.6
20260508120826 45 244 0.0 1.0 0.00 0.00 0.00 74 1015.6
20260508120323 44 260 3.0 3.0 0.00 0.00 0.00 77 1015.6
20260508115821 44 261 1.0 1.0 0.00 0.00 0.00 85 1015.6
20260508115318 42 257 1.0 1.0 0.00 0.00 0.00 86 1015.5
20260508114814 41 286 1.0 2.0 0.00 0.00 0.00 91 1015.7
20260508114312 40 264 2.0 2.0 0.00 0.00 0.00 93 1015.4
20260508113808 38 272 1.0 2.0 0.00 0.00 0.00 95 1015.4
20260508113306 37 256 0.0 0.0 0.00 0.00 0.00 96 1015.3
20260508112802 36 251 0.0 0.0 0.00 0.00 0.00 98 1015.3
20260508112300 36 251 1.0 1.0 0.00 0.00 0.00 99 1015.5
20260508111755 35 251 0.0 0.0 0.00 0.00 0.00 99 1015.5
20260508111254 34 235 0.0 0.0 0.00 0.00 0.00 99 1015.4
20260508110751 34 235 0.0 0.0 0.00 0.00 0.00 99 1015.4
20260508110248 33 235 0.0 0.0 0.00 0.00 0.00 99 1015.2
20260508105748 33 234 0.0 0.0 0.00 0.00 0.00 99 1015.2
20260508105244 33 234 0.0 0.0 0.00 0.00 0.00 99 1015.3
20260508104742 33 236 0.0 0.0 0.00 0.00 0.00 99 1015.1
20260508104239 33 236 0.0 0.0 0.00 0.00 0.00 99 1015.1
20260508103736 33 234 0.0 0.0 0.00 0.00 0.00 99 1015.1